| time (UTC) | temp F | wind direction | speed MPH | gust MPH | rain 1hr in | rain 24hr in | rain mn in | humidity % | barometer mb |
| 20260904174535 | 78 | 1.0 | 4.0 | 0.00 | 0.00 | 0.00 | 11 | 1010.0 | |
| 20260904173518 | 78 | 1.0 | 5.0 | 0.00 | 0.00 | 0.00 | 11 | 1010.0 | |
| 20260904172507 | 78 | 3.0 | 8.0 | 0.00 | 0.00 | 0.00 | 11 | 1010.0 | |
| 20260904171456 | 78 | 2.0 | 7.0 | 0.00 | 0.00 | 0.00 | 11 | 1010.1 | |
| 20260904170445 | 78 | 4.0 | 6.0 | 0.00 | 0.00 | 0.00 | 11 | 1010.1 | |
| 20260904165433 | 80 | 2.0 | 7.0 | 0.00 | 0.00 | 0.00 | 11 | 1010.2 | |
| 20260904164421 | 80 | 3.0 | 5.0 | 0.00 | 0.00 | 0.00 | 11 | 1010.3 | |
| 20260904163409 | 80 | 2.0 | 7.0 | 0.00 | 0.00 | 0.00 | 11 | 1010.3 | |
| 20260904162357 | 80 | 3.0 | 6.0 | 0.00 | 0.00 | 0.00 | 11 | 1010.4 | |
| 20260904161346 | 80 | 2.0 | 6.0 | 0.00 | 0.00 | 0.00 | 11 | 1010.4 | |
| 20260904160334 | 80 | 3.0 | 5.0 | 0.00 | 0.00 | 0.00 | 11 | 1010.5 | |
| 20260904155322 | 80 | 3.0 | 4.0 | 0.00 | 0.00 | 0.00 | 11 | 1010.6 | |
| 20260904154310 | 80 | 2.0 | 7.0 | 0.00 | 0.00 | 0.00 | 11 | 1010.6 | |
| 20260904153157 | 82 | 2.0 | 6.0 | 0.00 | 0.00 | 0.00 | 11 | 1010.7 | |
| 20260904152145 | 82 | 2.0 | 5.0 | 0.00 | 0.00 | 0.00 | 11 | 1010.8 | |
| 20260904151133 | 84 | 4.0 | 6.0 | 0.00 | 0.00 | 0.00 | 11 | 1010.8 | |
| 20260904150122 | 84 | 2.0 | 6.0 | 0.00 | 0.00 | 0.00 | 11 | 1010.8 | |
| 20260904145111 | 84 | 4.0 | 6.0 | 0.00 | 0.00 | 0.00 | 11 | 1010.8 | |
| 20260904144059 | 84 | 4.0 | 10.0 | 0.00 | 0.00 | 0.00 | 11 | 1010.9 | |
| 20260904143047 | 84 | 5.0 | 8.0 | 0.00 | 0.00 | 0.00 | 11 | 1010.8 | |
| 20260904142035 | 82 | 7.0 | 9.0 | 0.00 | 0.00 | 0.00 | 11 | 1011.1 | |
| 20260904141024 | 84 | 3.0 | 9.0 | 0.00 | 0.00 | 0.00 | 11 | 1011.1 | |
| 20260904140012 | 84 | 7.0 | 11.0 | 0.00 | 0.00 | 0.00 | 11 | 1011.1 | |
| 20260904135000 | 84 | 3.0 | 8.0 | 0.00 | 0.00 | 0.00 | 11 | 1011.3 | |
| 20260904133949 | 84 | 4.0 | 8.0 | 0.00 | 0.00 | 0.00 | 11 | 1011.2 | |
| 20260904132937 | 84 | 4.0 | 6.0 | 0.00 | 0.00 | 0.00 | 11 | 1011.3 | |
| 20260904131925 | 86 | 3.0 | 5.0 | 0.00 | 0.00 | 0.00 | 11 | 1011.4 | |
| 20260904130913 | 84 | 5.0 | 9.0 | 0.00 | 0.00 | 0.00 | 11 | 1011.5 | |
| 20260904125854 | 84 | 3.0 | 6.0 | 0.00 | 0.00 | 0.00 | 11 | 1011.6 | |
| 20260904124842 | 84 | 3.0 | 7.0 | 0.00 | 0.00 | 0.00 | 11 | 1011.5 | |
| 20260904123831 | 84 | 4.0 | 6.0 | 0.00 | 0.00 | 0.00 | 11 | 1011.8 | |
| 20260904122820 | 86 | 3.0 | 7.0 | 0.00 | 0.00 | 0.00 | 11 | 1011.8 | |
| 20260904121804 | 86 | 4.0 | 6.0 | 0.00 | 0.00 | 0.00 | 11 | 1012.0 | |
| 20260904120753 | 84 | 3.0 | 6.0 | 0.00 | 0.00 | 0.00 | 11 | 1012.0 | |
| 20260904115737 | 87 | 0.0 | 7.0 | 0.00 | 0.00 | 0.00 | 11 | 1012.0 | |
| 20260904114726 | 84 | 2.0 | 6.0 | 0.00 | 0.00 | 0.00 | 11 | 1012.0 | |
| 20260904113714 | 87 | 1.0 | 4.0 | 0.00 | 0.00 | 0.00 | 11 | 1012.0 | |
| 20260904112656 | 86 | 2.0 | 4.0 | 0.00 | 0.00 | 0.00 | 11 | 1012.1 | |
| 20260904111644 | 84 | 4.0 | 5.0 | 0.00 | 0.00 | 0.00 | 11 | 1012.1 | |
| 20260904110632 | 86 | 3.0 | 5.0 | 0.00 | 0.00 | 0.00 | 11 | 1012.1 | |
| 20260904105620 | 87 | 2.0 | 3.0 | 0.00 | 0.00 | 0.00 | 11 | 1012.1 | |
| 20260904104610 | 86 | 2.0 | 4.0 | 0.00 | 0.00 | 0.00 | 11 | 1012.2 | |
| 20260904103557 | 84 | 2.0 | 7.0 | 0.00 | 0.00 | 0.00 | 11 | 1012.1 | |
| 20260904102545 | 86 | 3.0 | 6.0 | 0.00 | 0.00 | 0.00 | 11 | 1012.2 | |
| 20260904101534 | 84 | 3.0 | 7.0 | 0.00 | 0.00 | 0.00 | 11 | 1012.3 | |
| 20260904100519 | 84 | 5.0 | 6.0 | 0.00 | 0.00 | 0.00 | 11 | 1012.2 | |
| 20260904095507 | 87 | 0.0 | 4.0 | 0.00 | 0.00 | 0.00 | 11 | 1012.3 | |
| 20260904094456 | 86 | 3.0 | 4.0 | 0.00 | 0.00 | 0.00 | 11 | 1012.3 | |
| 20260904093444 | 84 | 2.0 | 6.0 | 0.00 | 0.00 | 0.00 | 11 | 1012.3 | |
| 20260904092433 | 84 | 2.0 | 5.0 | 0.00 | 0.00 | 0.00 | 11 | 1012.3 | |
| 20260904091422 | 84 | 1.0 | 5.0 | 0.00 | 0.00 | 0.00 | 11 | 1012.3 | |
| 20260904090409 | 86 | 1.0 | 4.0 | 0.00 | 0.00 | 0.00 | 11 | 1012.2 | |
| 20260904085357 | 84 | 3.0 | 5.0 | 0.00 | 0.00 | 0.00 | 11 | 1012.1 | |
| 20260904084345 | 84 | 3.0 | 5.0 | 0.00 | 0.00 | 0.00 | 11 | 1012.0 | |
| 20260904083334 | 87 | 2.0 | 3.0 | 0.00 | 0.00 | 0.00 | 11 | 1012.0 | |
| 20260904082320 | 84 | 1.0 | 4.0 | 0.00 | 0.00 | 0.00 | 11 | 1011.9 | |
| 20260904081308 | 84 | 0.0 | 3.0 | 0.00 | 0.00 | 0.00 | 11 | 1011.8 | |
| 20260904080257 | 84 | 0.0 | 3.0 | 0.00 | 0.00 | 0.00 | 11 | 1011.8 | |
| 20260904075242 | 82 | 1.0 | 3.0 | 0.00 | 0.00 | 0.00 | 11 | 1011.8 | |
| 20260904074230 | 84 | 1.0 | 2.0 | 0.00 | 0.00 | 0.00 | 11 | 1011.7 | |
| 20260904073217 | 86 | 0.0 | 1.0 | 0.00 | 0.00 | 0.00 | 11 | 1011.8 | |
| 20260904072206 | 86 | 0.0 | 1.0 | 0.00 | 0.00 | 0.00 | 11 | 1011.7 | |
| 20260904071151 | 84 | 0.0 | 0.0 | 0.00 | 0.00 | 0.00 | 11 | 1011.6 | |
| 20260904065128 | 80 | 0.0 | 0.0 | 0.00 | 0.00 | 0.00 | 11 | 1011.5 | |
| 20260904063914 | 78 | 0.0 | 0.0 | 0.00 | 0.00 | 0.00 | 11 | 1011.5 | |
| 20260904062902 | 77 | 0.0 | 1.0 | 0.00 | 0.00 | 0.00 | 11 | 1011.4 | |
| 20260904061850 | 73 | 0.0 | 0.0 | 0.00 | 0.00 | 0.00 | 11 | 1011.4 | |
| 20260904060838 | 69 | 0.0 | 0.0 | 0.00 | 0.00 | 0.00 | 11 | 1011.4 | |
| 20260904055826 | 69 | 0.0 | 0.0 | 0.00 | 0.00 | 0.00 | 11 | 1011.3 | |
| 20260904054612 | 69 | 0.0 | 0.0 | 0.00 | 0.00 | 0.00 | 11 | 1011.1 | |
| 20260904053459 | 69 | 0.0 | 0.0 | 0.00 | 0.00 | 0.00 | 11 | 1011.0 | |
| 20260904051637 | 69 | 0.0 | 1.0 | 0.00 | 0.00 | 0.00 | 11 | 1011.0 | |
| 20260904045309 | 69 | 0.0 | 0.0 | 0.00 | 0.00 | 0.00 | 11 | 1011.0 | |
| 20260904043448 | 69 | 0.0 | 0.0 | 0.00 | 0.00 | 0.00 | 11 | 1010.8 | |
| 20260904041727 | 69 | 0.0 | 0.0 | 0.00 | 0.00 | 0.00 | 11 | 1010.7 | |
| 20260904040613 | 69 | 0.0 | 0.0 | 0.00 | 0.00 | 0.00 | 11 | 1010.6 | |
| 20260904035600 | 69 | 0.0 | 0.0 | 0.00 | 0.00 | 0.00 | 11 | 1010.8 | |
| 20260904033435 | 69 | 0.0 | 0.0 | 0.00 | 0.00 | 0.00 | 11 | 1010.8 | |
| 20260904031310 | 69 | 0.0 | 0.0 | 0.00 | 0.00 | 0.00 | 11 | 1010.7 | |
| 20260904030258 | 69 | 0.0 | 0.0 | 0.00 | 0.00 | 0.00 | 11 | 1010.8 | |
| 20260904025245 | 69 | 0.0 | 0.0 | 0.00 | 0.00 | 0.00 | 11 | 1010.9 | |
| 20260904024029 | 69 | 0.0 | 0.0 | 0.00 | 0.00 | 0.00 | 11 | 1010.9 | |
| 20260904022207 | 71 | 0.0 | 0.0 | 0.00 | 0.00 | 0.00 | 11 | 1011.0 | |
| 20260904020851 | 69 | 0.0 | 0.0 | 0.00 | 0.00 | 0.00 | 11 | 1010.9 | |
| 20260904015840 | 71 | 0.0 | 0.0 | 0.00 | 0.00 | 0.00 | 11 | 1011.0 | |
| 20260904013811 | 71 | 0.0 | 0.0 | 0.00 | 0.00 | 0.00 | 11 | 1010.9 | |
| 20260904012355 | 71 | 0.0 | 0.0 | 0.00 | 0.00 | 0.00 | 11 | 1010.9 | |
| 20260904011242 | 71 | 0.0 | 0.0 | 0.00 | 0.00 | 0.00 | 11 | 1010.8 | |
| 20260904005927 | 71 | 0.0 | 1.0 | 0.00 | 0.00 | 0.00 | 11 | 1010.8 | |
| 20260904004915 | 71 | 0.0 | 0.0 | 0.00 | 0.00 | 0.00 | 11 | 1010.8 | |
| 20260904003903 | 71 | 0.0 | 0.0 | 0.00 | 0.00 | 0.00 | 11 | 1010.9 | |
| 20260904002446 | 71 | 0.0 | 0.0 | 0.00 | 0.00 | 0.00 | 11 | 1010.9 | |
| 20260903234845 | 71 | 0.0 | 1.0 | 0.00 | 0.00 | 0.00 | 11 | 1010.8 | |
| 20260903233832 | 71 | 0.0 | 0.0 | 0.00 | 0.00 | 0.00 | 11 | 1010.9 | |
| 20260903232011 | 73 | 0.0 | 0.0 | 0.00 | 0.00 | 0.00 | 11 | 1010.9 | |
| 20260903230448 | 73 | 0.0 | 0.0 | 0.00 | 0.00 | 0.00 | 11 | 1010.8 | |
| 20260903225433 | 73 | 0.0 | 0.0 | 0.00 | 0.00 | 0.00 | 11 | 1010.8 | |
| 20260903224315 | 73 | 0.0 | 0.0 | 0.00 | 0.00 | 0.00 | 11 | 1010.8 | |
| 20260903223303 | 73 | 0.0 | 1.0 | 0.00 | 0.00 | 0.00 | 11 | 1010.8 | |
| 20260903222250 | 73 | 0.0 | 1.0 | 0.00 | 0.00 | 0.00 | 11 | 1010.8 | |
| 20260903221237 | 73 | 0.0 | 1.0 | 0.00 | 0.00 | 0.00 | 11 | 1011.0 | |
| 20260903220226 | 73 | 0.0 | 0.0 | 0.00 | 0.00 | 0.00 | 11 | 1011.1 | |
| 20260903215010 | 73 | 1.0 | 1.0 | 0.00 | 0.00 | 0.00 | 11 | 1011.1 | |
| 20260903213959 | 73 | 0.0 | 0.0 | 0.00 | 0.00 | 0.00 | 11 | 1011.0 | |
| 20260903212541 | 73 | 0.0 | 0.0 | 0.00 | 0.00 | 0.00 | 11 | 1011.1 | |
| 20260903210011 | 75 | 0.0 | 0.0 | 0.00 | 0.00 | 0.00 | 11 | 1011.0 | |
| 20260903204756 | 75 | 0.0 | 0.0 | 0.00 | 0.00 | 0.00 | 11 | 1011.0 | |
| 20260903203644 | 75 | 0.0 | 0.0 | 0.00 | 0.00 | 0.00 | 11 | 1011.0 | |
| 20260903202633 | 75 | 0.0 | 0.0 | 0.00 | 0.00 | 0.00 | 11 | 1011.0 | |
| 20260903201317 | 75 | 0.0 | 0.0 | 0.00 | 0.00 | 0.00 | 11 | 1011.0 | |
| 20260903195455 | 75 | 0.0 | 1.0 | 0.00 | 0.00 | 0.00 | 11 | 1010.9 | |
| 20260903194443 | 75 | 0.0 | 0.0 | 0.00 | 0.00 | 0.00 | 11 | 1011.0 | |
| 20260903193330 | 77 | 0.0 | 0.0 | 0.00 | 0.00 | 0.00 | 11 | 1010.8 | |
| 20260903192218 | 77 | 0.0 | 0.0 | 0.00 | 0.00 | 0.00 | 11 | 1010.9 | |
| 20260903191104 | 77 | 0.0 | 0.0 | 0.00 | 0.00 | 0.00 | 11 | 1010.8 | |
| 20260903190053 | 77 | 0.0 | 0.0 | 0.00 | 0.00 | 0.00 | 11 | 1010.7 | |
| 20260903184940 | 78 | 0.0 | 0.0 | 0.00 | 0.00 | 0.00 | 11 | 1010.6 | |
| 20260903183828 | 78 | 0.0 | 3.0 | 0.00 | 0.00 | 0.00 | 11 | 1010.5 | |
| 20260903182816 | 78 | 1.0 | 3.0 | 0.00 | 0.00 | 0.00 | 11 | 1010.4 | |
| 20260903181804 | 78 | 0.0 | 1.0 | 0.00 | 0.00 | 0.00 | 11 | 1010.2 | |
| 20260903180752 | 78 | 0.0 | 2.0 | 0.00 | 0.00 | 0.00 | 11 | 1010.2 | |
| 20260903175740 | 78 | 2.0 | 4.0 | 0.00 | 0.00 | 0.00 | 11 | 1010.2 | |
| 20260903174727 | 78 | 2.0 | 3.0 | 0.00 | 0.00 | 0.00 | 11 | 1010.1 |